| time (UTC) | temp C | wind direction | speed KPH | gust KPH | rain 1hr cm | rain 24hr cm | rain mn cm | humidity % | barometer mb |
| 20260507164037 | 30 | 96 | 43.5 | 61.2 | 0.00 | 0.00 | 0.00 | 72 | 1012.4 |
| 20260507163534 | 30 | 145 | 40.2 | 77.2 | 0.00 | 0.00 | 0.00 | 72 | 1012.5 |
| 20260507163032 | 30 | 139 | 37.0 | 64.4 | 0.00 | 0.00 | 0.00 | 73 | 1012.6 |
| 20260507162532 | 30 | 128 | 53.1 | 69.2 | 0.00 | 0.00 | 0.00 | 72 | 1012.7 |
| 20260507162029 | 30 | 96 | 45.1 | 69.2 | 0.00 | 0.00 | 0.00 | 72 | 1012.8 |
| 20260507161526 | 30 | 123 | 48.3 | 61.2 | 0.00 | 0.00 | 0.00 | 71 | 1013.0 |
| 20260507161023 | 30 | 110 | 41.8 | 72.4 | 0.00 | 0.00 | 0.00 | 71 | 1012.9 |
| 20260507160519 | 30 | 134 | 49.9 | 64.4 | 0.00 | 0.00 | 0.00 | 72 | 1012.9 |
| 20260507160015 | 30 | 124 | 53.1 | 64.4 | 0.00 | 0.00 | 0.00 | 71 | 1012.9 |
| 20260507155510 | 30 | 153 | 37.0 | 61.2 | 0.00 | 0.00 | 0.00 | 71 | 1012.7 |
| 20260507155008 | 30 | 136 | 45.1 | 69.2 | 0.00 | 0.00 | 0.00 | 72 | 1013.0 |
| 20260507154504 | 30 | 127 | 30.6 | 80.5 | 0.00 | 0.00 | 0.00 | 72 | 1012.8 |
| 20260507154001 | 30 | 106 | 41.8 | 64.4 | 0.00 | 0.00 | 0.00 | 71 | 1013.0 |
| 20260507153458 | 30 | 112 | 38.6 | 77.2 | 0.00 | 0.00 | 0.00 | 73 | 1013.0 |
| 20260507152954 | 30 | 108 | 51.5 | 61.2 | 0.00 | 0.00 | 0.00 | 72 | 1013.0 |
| 20260507152451 | 30 | 120 | 41.8 | 64.4 | 0.00 | 0.00 | 0.00 | 73 | 1013.0 |
| 20260507151947 | 30 | 127 | 53.1 | 72.4 | 0.00 | 0.00 | 0.00 | 73 | 1013.1 |
| 20260507151443 | 30 | 132 | 48.3 | 72.4 | 0.00 | 0.00 | 0.00 | 73 | 1013.4 |
| 20260507150940 | 30 | 128 | 27.4 | 56.3 | 0.00 | 0.00 | 0.00 | 74 | 1013.1 |
| 20260507150437 | 30 | 117 | 48.3 | 69.2 | 0.00 | 0.00 | 0.00 | 73 | 1013.1 |
| 20260507145933 | 30 | 109 | 51.5 | 69.2 | 0.00 | 0.00 | 0.00 | 74 | 1013.0 |
| 20260507145429 | 30 | 120 | 29.0 | 61.2 | 0.00 | 0.00 | 0.00 | 74 | 1013.0 |
| 20260507144926 | 30 | 124 | 37.0 | 56.3 | 0.00 | 0.00 | 0.00 | 74 | 1013.2 |
| 20260507144423 | 30 | 111 | 41.8 | 64.4 | 0.00 | 0.00 | 0.00 | 74 | 1013.3 |
| 20260507143920 | 30 | 93 | 51.5 | 72.4 | 0.00 | 0.00 | 0.00 | 74 | 1013.3 |
| 20260507143418 | 29 | 118 | 45.1 | 72.4 | 0.00 | 0.00 | 0.00 | 75 | 1013.2 |
| 20260507142914 | 29 | 107 | 40.2 | 56.3 | 0.00 | 0.00 | 0.00 | 75 | 1013.5 |
| 20260507142410 | 29 | 85 | 43.5 | 64.4 | 0.00 | 0.00 | 0.00 | 75 | 1013.5 |
| 20260507141907 | 29 | 130 | 37.0 | 64.4 | 0.00 | 0.00 | 0.00 | 75 | 1013.4 |
| 20260507141403 | 29 | 130 | 45.1 | 69.2 | 0.00 | 0.00 | 0.00 | 75 | 1013.2 |
| 20260507140900 | 29 | 137 | 43.5 | 72.4 | 0.00 | 0.00 | 0.00 | 75 | 1013.3 |
| 20260507140357 | 29 | 109 | 37.0 | 61.2 | 0.00 | 0.00 | 0.00 | 75 | 1013.3 |
| 20260507135855 | 29 | 90 | 32.2 | 61.2 | 0.00 | 0.00 | 0.00 | 75 | 1013.0 |
| 20260507135351 | 29 | 100 | 37.0 | 77.2 | 0.00 | 0.00 | 0.00 | 75 | 1013.5 |
| 20260507134849 | 29 | 97 | 41.8 | 61.2 | 0.00 | 0.00 | 0.00 | 76 | 1013.5 |
| 20260507134345 | 29 | 130 | 38.6 | 69.2 | 0.00 | 0.00 | 0.00 | 75 | 1013.3 |
| 20260507133841 | 30 | 97 | 49.9 | 61.2 | 0.00 | 0.00 | 0.00 | 74 | 1013.3 |
| 20260507133336 | 30 | 106 | 54.7 | 69.2 | 0.00 | 0.00 | 0.00 | 74 | 1013.2 |
| 20260507132835 | 29 | 100 | 35.4 | 69.2 | 0.00 | 0.00 | 0.00 | 76 | 1013.2 |
| 20260507132331 | 29 | 82 | 45.1 | 64.4 | 0.00 | 0.00 | 0.00 | 76 | 1013.0 |
| 20260507131829 | 29 | 145 | 43.5 | 64.4 | 0.00 | 0.00 | 0.00 | 76 | 1013.2 |
| 20260507131325 | 29 | 138 | 43.5 | 72.4 | 0.00 | 0.00 | 0.00 | 76 | 1013.2 |
| 20260507130822 | 29 | 99 | 33.8 | 53.1 | 0.00 | 0.00 | 0.00 | 77 | 1013.0 |
| 20260507130319 | 29 | 126 | 40.2 | 72.4 | 0.00 | 0.00 | 0.00 | 76 | 1013.0 |
| 20260507125818 | 29 | 127 | 27.4 | 64.4 | 0.00 | 0.00 | 0.00 | 77 | 1013.2 |
| 20260507125315 | 28 | 121 | 41.8 | 64.4 | 0.00 | 0.00 | 0.00 | 77 | 1013.1 |
| 20260507124812 | 28 | 117 | 40.2 | 69.2 | 0.00 | 0.00 | 0.00 | 77 | 1013.1 |
| 20260507124308 | 28 | 118 | 45.1 | 56.3 | 0.00 | 0.00 | 0.00 | 78 | 1013.0 |
| 20260507123807 | 28 | 111 | 48.3 | 69.2 | 0.00 | 0.00 | 0.00 | 78 | 1013.0 |
| 20260507123304 | 28 | 104 | 41.8 | 64.4 | 0.00 | 0.00 | 0.00 | 78 | 1013.0 |
| 20260507122800 | 28 | 109 | 49.9 | 69.2 | 0.00 | 0.00 | 0.00 | 78 | 1012.9 |
| 20260507122255 | 28 | 143 | 38.6 | 61.2 | 0.00 | 0.00 | 0.00 | 78 | 1012.9 |
| 20260507121752 | 28 | 104 | 37.0 | 48.3 | 0.00 | 0.00 | 0.00 | 79 | 1012.8 |
| 20260507121248 | 28 | 111 | 38.6 | 69.2 | 0.00 | 0.00 | 0.00 | 79 | 1012.9 |
| 20260507120744 | 28 | 112 | 33.8 | 72.4 | 0.00 | 0.00 | 0.00 | 80 | 1012.7 |
| 20260507120241 | 28 | 110 | 32.2 | 56.3 | 0.00 | 0.00 | 0.00 | 80 | 1012.7 |
| 20260507115737 | 28 | 126 | 27.4 | 56.3 | 0.00 | 0.00 | 0.00 | 80 | 1012.8 |
| 20260507115233 | 27 | 131 | 33.8 | 64.4 | 0.00 | 0.00 | 0.00 | 80 | 1012.7 |
| 20260507114728 | 27 | 112 | 38.6 | 56.3 | 0.00 | 0.00 | 0.00 | 80 | 1012.6 |
| 20260507114226 | 27 | 124 | 41.8 | 53.1 | 0.00 | 0.00 | 0.00 | 81 | 1012.6 |
| 20260507113724 | 27 | 136 | 37.0 | 48.3 | 0.00 | 0.00 | 0.00 | 81 | 1012.6 |
| 20260507113220 | 27 | 115 | 32.2 | 61.2 | 0.00 | 0.00 | 0.00 | 81 | 1012.7 |
| 20260507112718 | 27 | 98 | 37.0 | 53.1 | 0.00 | 0.00 | 0.00 | 81 | 1012.4 |
| 20260507112215 | 27 | 117 | 41.8 | 61.2 | 0.00 | 0.00 | 0.00 | 81 | 1012.5 |
| 20260507111712 | 27 | 131 | 37.0 | 56.3 | 0.00 | 0.00 | 0.00 | 82 | 1012.5 |
| 20260507111209 | 27 | 107 | 37.0 | 61.2 | 0.00 | 0.00 | 0.00 | 82 | 1012.2 |
| 20260507110705 | 27 | 133 | 40.2 | 53.1 | 0.00 | 0.00 | 0.00 | 82 | 1012.3 |
| 20260507110202 | 27 | 114 | 37.0 | 64.4 | 0.00 | 0.00 | 0.00 | 82 | 1012.1 |
| 20260507105659 | 27 | 123 | 37.0 | 53.1 | 0.00 | 0.00 | 0.00 | 82 | 1012.1 |
| 20260507105154 | 27 | 111 | 32.2 | 48.3 | 0.00 | 0.00 | 0.00 | 82 | 1012.0 |
| 20260507104652 | 27 | 104 | 27.4 | 45.1 | 0.00 | 0.00 | 0.00 | 82 | 1012.2 |
| 20260507104148 | 27 | 76 | 19.3 | 37.0 | 0.00 | 0.00 | 0.00 | 82 | 1011.9 |
| 20260507103644 | 27 | 129 | 46.7 | 64.4 | 0.00 | 0.00 | 0.00 | 82 | 1011.9 |
| 20260507103141 | 27 | 119 | 37.0 | 56.3 | 0.00 | 0.00 | 0.00 | 82 | 1011.9 |
| 20260507102638 | 27 | 149 | 27.4 | 64.4 | 0.00 | 0.00 | 0.00 | 82 | 1011.9 |
| 20260507102134 | 27 | 126 | 53.1 | 64.4 | 0.00 | 0.00 | 0.00 | 82 | 1012.0 |
| 20260507101630 | 27 | 117 | 22.5 | 27.4 | 0.00 | 0.00 | 0.00 | 82 | 1011.8 |
| 20260507101126 | 27 | 129 | 32.2 | 45.1 | 0.00 | 0.00 | 0.00 | 81 | 1011.9 |
| 20260507100623 | 27 | 157 | 46.7 | 53.1 | 0.00 | 0.00 | 0.00 | 81 | 1011.9 |
| 20260507100121 | 27 | 159 | 37.0 | 69.2 | 0.00 | 0.00 | 0.00 | 81 | 1011.6 |
| 20260507095619 | 27 | 99 | 37.0 | 61.2 | 0.00 | 0.00 | 0.00 | 81 | 1011.6 |
| 20260507095115 | 27 | 120 | 29.0 | 56.3 | 0.00 | 0.00 | 0.00 | 81 | 1011.5 |
| 20260507094611 | 27 | 115 | 45.1 | 64.4 | 0.00 | 0.00 | 0.00 | 81 | 1011.5 |
| 20260507094109 | 27 | 126 | 37.0 | 48.3 | 0.00 | 0.00 | 0.00 | 81 | 1011.5 |
| 20260507093606 | 27 | 105 | 35.4 | 64.4 | 0.00 | 0.00 | 0.00 | 81 | 1011.5 |
| 20260507093105 | 27 | 98 | 33.8 | 53.1 | 0.00 | 0.00 | 0.00 | 81 | 1011.6 |
| 20260507092601 | 27 | 143 | 41.8 | 56.3 | 0.00 | 0.00 | 0.00 | 81 | 1011.6 |
| 20260507092057 | 27 | 129 | 32.2 | 53.1 | 0.00 | 0.00 | 0.00 | 81 | 1011.4 |
| 20260507091554 | 27 | 120 | 51.5 | 64.4 | 0.00 | 0.00 | 0.00 | 81 | 1011.5 |
| 20260507091050 | 27 | 108 | 32.2 | 69.2 | 0.00 | 0.00 | 0.00 | 81 | 1011.4 |
| 20260507090546 | 27 | 124 | 30.6 | 45.1 | 0.00 | 0.00 | 0.00 | 81 | 1011.2 |
| 20260507090043 | 27 | 103 | 45.1 | 64.4 | 0.00 | 0.00 | 0.00 | 81 | 1011.1 |
| 20260507085540 | 27 | 130 | 30.6 | 53.1 | 0.00 | 0.00 | 0.00 | 81 | 1011.3 |
| 20260507085037 | 27 | 99 | 35.4 | 56.3 | 0.00 | 0.00 | 0.00 | 81 | 1011.3 |
| 20260507084533 | 27 | 110 | 35.4 | 69.2 | 0.00 | 0.00 | 0.00 | 81 | 1011.0 |
| 20260507084031 | 27 | 131 | 30.6 | 64.4 | 0.00 | 0.00 | 0.00 | 81 | 1011.1 |
| 20260507083527 | 27 | 130 | 37.0 | 56.3 | 0.00 | 0.00 | 0.00 | 81 | 1011.0 |
| 20260507083024 | 27 | 134 | 37.0 | 56.3 | 0.00 | 0.00 | 0.00 | 81 | 1011.1 |
| 20260507082520 | 27 | 123 | 32.2 | 53.1 | 0.00 | 0.00 | 0.00 | 81 | 1011.2 |
| 20260507082016 | 27 | 131 | 35.4 | 64.4 | 0.00 | 0.00 | 0.00 | 81 | 1011.1 |
| 20260507081513 | 27 | 109 | 30.6 | 56.3 | 0.00 | 0.00 | 0.00 | 81 | 1011.1 |
| 20260507081010 | 27 | 114 | 38.6 | 53.1 | 0.00 | 0.00 | 0.00 | 81 | 1011.1 |
| 20260507080506 | 27 | 109 | 40.2 | 61.2 | 0.00 | 0.00 | 0.00 | 81 | 1011.3 |
| 20260507080001 | 27 | 124 | 27.4 | 53.1 | 0.00 | 0.00 | 0.00 | 81 | 1011.1 |
| 20260507075458 | 27 | 118 | 30.6 | 53.1 | 0.00 | 0.00 | 0.00 | 81 | 1011.0 |
| 20260507074954 | 27 | 82 | 40.2 | 48.3 | 0.00 | 0.00 | 0.00 | 81 | 1011.0 |
| 20260507074451 | 27 | 129 | 49.9 | 69.2 | 0.00 | 0.00 | 0.00 | 81 | 1011.0 |
| 20260507073949 | 27 | 136 | 40.2 | 64.4 | 0.00 | 0.00 | 0.00 | 81 | 1011.0 |
| 20260507073445 | 27 | 119 | 37.0 | 61.2 | 0.00 | 0.00 | 0.00 | 81 | 1011.0 |
| 20260507072942 | 27 | 83 | 35.4 | 61.2 | 0.00 | 0.00 | 0.00 | 82 | 1010.9 |
| 20260507072439 | 27 | 77 | 40.2 | 56.3 | 0.00 | 0.00 | 0.00 | 82 | 1011.0 |
| 20260507071937 | 27 | 112 | 32.2 | 48.3 | 0.00 | 0.00 | 0.00 | 82 | 1011.1 |
| 20260507071434 | 27 | 128 | 37.0 | 48.3 | 0.00 | 0.00 | 0.00 | 82 | 1011.1 |
| 20260507070930 | 27 | 109 | 35.4 | 53.1 | 0.00 | 0.00 | 0.00 | 82 | 1011.0 |
| 20260507070428 | 27 | 117 | 45.1 | 61.2 | 0.00 | 0.00 | 0.00 | 82 | 1010.9 |
| 20260507065924 | 27 | 129 | 32.2 | 56.3 | 0.00 | 0.00 | 0.00 | 82 | 1011.0 |
| 20260507065421 | 27 | 97 | 27.4 | 69.2 | 0.00 | 0.00 | 0.00 | 82 | 1011.1 |
| 20260507064918 | 27 | 111 | 43.5 | 64.4 | 0.00 | 0.00 | 0.00 | 82 | 1011.2 |
| 20260507064416 | 27 | 95 | 37.0 | 61.2 | 0.00 | 0.00 | 0.00 | 82 | 1011.3 |
| 20260507063914 | 27 | 100 | 40.2 | 61.2 | 0.00 | 0.00 | 0.00 | 82 | 1011.2 |
| 20260507063411 | 27 | 120 | 27.4 | 40.2 | 0.00 | 0.00 | 0.00 | 83 | 1011.3 |
| 20260507062908 | 27 | 120 | 40.2 | 61.2 | 0.00 | 0.00 | 0.00 | 83 | 1011.3 |
| 20260507062405 | 27 | 129 | 46.7 | 61.2 | 0.00 | 0.00 | 0.00 | 83 | 1011.2 |
| 20260507061902 | 27 | 88 | 37.0 | 64.4 | 0.00 | 0.00 | 0.00 | 83 | 1011.5 |
| 20260507061400 | 27 | 117 | 35.4 | 45.1 | 0.00 | 0.00 | 0.00 | 83 | 1011.2 |
| 20260507060859 | 27 | 110 | 45.1 | 56.3 | 0.00 | 0.00 | 0.00 | 83 | 1011.3 |
| 20260507060355 | 27 | 129 | 33.8 | 53.1 | 0.00 | 0.00 | 0.00 | 83 | 1011.3 |
| 20260507055852 | 27 | 143 | 56.3 | 72.4 | 0.00 | 0.00 | 0.00 | 83 | 1011.5 |
| 20260507055346 | 27 | 123 | 45.1 | 72.4 | 0.00 | 0.00 | 0.00 | 82 | 1011.5 |
| 20260507054844 | 27 | 75 | 37.0 | 64.4 | 0.00 | 0.00 | 0.00 | 83 | 1011.7 |
| 20260507054340 | 27 | 112 | 43.5 | 69.2 | 0.00 | 0.00 | 0.00 | 82 | 1011.6 |
| 20260507053837 | 27 | 129 | 48.3 | 56.3 | 0.00 | 0.00 | 0.00 | 82 | 1011.6 |
| 20260507053335 | 27 | 99 | 32.2 | 61.2 | 0.00 | 0.00 | 0.00 | 82 | 1011.7 |
| 20260507052833 | 27 | 110 | 37.0 | 56.3 | 0.00 | 0.00 | 0.00 | 82 | 1011.9 |
| 20260507052330 | 27 | 152 | 41.8 | 64.4 | 0.00 | 0.00 | 0.00 | 82 | 1012.0 |
| 20260507051828 | 27 | 116 | 48.3 | 69.2 | 0.00 | 0.00 | 0.00 | 82 | 1012.1 |
| 20260507051325 | 27 | 105 | 45.1 | 64.4 | 0.00 | 0.00 | 0.00 | 82 | 1012.0 |
| 20260507050822 | 27 | 170 | 33.8 | 48.3 | 0.00 | 0.00 | 0.00 | 83 | 1012.2 |
| 20260507050318 | 27 | 122 | 43.5 | 53.1 | 0.00 | 0.00 | 0.00 | 83 | 1012.3 |
| 20260507045815 | 27 | 99 | 43.5 | 69.2 | 0.00 | 0.00 | 0.00 | 83 | 1012.0 |
| 20260507045312 | 27 | 119 | 30.6 | 56.3 | 0.00 | 0.00 | 0.00 | 82 | 1012.4 |
| 20260507044809 | 27 | 112 | 49.9 | 69.2 | 0.00 | 0.00 | 0.00 | 82 | 1012.2 |
| 20260507044305 | 27 | 116 | 38.6 | 53.1 | 0.00 | 0.00 | 0.00 | 82 | 1012.3 |
| 20260507043801 | 27 | 103 | 41.8 | 69.2 | 0.00 | 0.00 | 0.00 | 82 | 1012.2 |
| 20260507043258 | 27 | 121 | 45.1 | 56.3 | 0.00 | 0.00 | 0.00 | 83 | 1012.4 |
| 20260507042754 | 27 | 115 | 46.7 | 64.4 | 0.00 | 0.00 | 0.00 | 82 | 1012.5 |
| 20260507042249 | 27 | 110 | 35.4 | 61.2 | 0.00 | 0.00 | 0.00 | 82 | 1012.6 |
| 20260507041747 | 27 | 99 | 35.4 | 48.3 | 0.00 | 0.00 | 0.00 | 82 | 1012.6 |
| 20260507041244 | 27 | 162 | 33.8 | 61.2 | 0.00 | 0.00 | 0.00 | 82 | 1012.8 |
| 20260507040741 | 27 | 121 | 46.7 | 53.1 | 0.00 | 0.00 | 0.00 | 82 | 1012.8 |
| 20260507040237 | 27 | 140 | 27.4 | 53.1 | 0.00 | 0.00 | 0.00 | 82 | 1012.7 |
| 20260507035733 | 27 | 114 | 45.1 | 72.4 | 0.00 | 0.00 | 0.00 | 82 | 1012.7 |
| 20260507035228 | 27 | 126 | 43.5 | 64.4 | 0.00 | 0.00 | 0.00 | 82 | 1012.7 |
| 20260507034726 | 27 | 131 | 38.6 | 64.4 | 0.00 | 0.00 | 0.00 | 82 | 1012.8 |
| 20260507034223 | 27 | 112 | 33.8 | 48.3 | 0.00 | 0.00 | 0.00 | 82 | 1012.7 |
| 20260507033721 | 27 | 124 | 30.6 | 64.4 | 0.00 | 0.00 | 0.00 | 82 | 1013.0 |
| 20260507033218 | 27 | 92 | 33.8 | 64.4 | 0.00 | 0.00 | 0.00 | 82 | 1013.1 |
| 20260507032716 | 27 | 107 | 40.2 | 69.2 | 0.00 | 0.00 | 0.00 | 82 | 1013.0 |
| 20260507032211 | 27 | 98 | 40.2 | 64.4 | 0.00 | 0.00 | 0.00 | 82 | 1013.0 |
| 20260507031708 | 27 | 132 | 61.2 | 64.4 | 0.00 | 0.00 | 0.00 | 83 | 1013.0 |
| 20260507031205 | 27 | 102 | 46.7 | 61.2 | 0.00 | 0.00 | 0.00 | 82 | 1013.0 |
| 20260507030702 | 27 | 147 | 38.6 | 56.3 | 0.00 | 0.00 | 0.00 | 83 | 1013.2 |
| 20260507030159 | 27 | 104 | 37.0 | 53.1 | 0.00 | 0.00 | 0.00 | 82 | 1013.0 |
| 20260507025657 | 27 | 121 | 37.0 | 56.3 | 0.00 | 0.00 | 0.00 | 82 | 1013.0 |
| 20260507025153 | 27 | 129 | 33.8 | 48.3 | 0.00 | 0.00 | 0.00 | 83 | 1013.1 |
| 20260507024652 | 27 | 115 | 25.7 | 53.1 | 0.00 | 0.00 | 0.00 | 82 | 1013.0 |
| 20260507024148 | 27 | 93 | 32.2 | 72.4 | 0.00 | 0.00 | 0.00 | 82 | 1013.1 |
| 20260507023644 | 27 | 162 | 46.7 | 61.2 | 0.00 | 0.00 | 0.00 | 82 | 1012.9 |
| 20260507023141 | 27 | 108 | 35.4 | 61.2 | 0.00 | 0.00 | 0.00 | 82 | 1012.9 |
| 20260507022638 | 27 | 107 | 54.7 | 72.4 | 0.00 | 0.00 | 0.00 | 82 | 1012.8 |
| 20260507022134 | 27 | 147 | 38.6 | 77.2 | 0.00 | 0.00 | 0.00 | 82 | 1012.8 |
| 20260507021631 | 27 | 111 | 38.6 | 61.2 | 0.00 | 0.00 | 0.00 | 82 | 1012.8 |
| 20260507021126 | 27 | 116 | 33.8 | 77.2 | 0.00 | 0.00 | 0.00 | 82 | 1012.7 |
| 20260507020625 | 27 | 129 | 40.2 | 64.4 | 0.00 | 0.00 | 0.00 | 82 | 1012.8 |
| 20260507020120 | 27 | 122 | 33.8 | 56.3 | 0.00 | 0.00 | 0.00 | 82 | 1012.8 |
| 20260507015619 | 27 | 99 | 53.1 | 64.4 | 0.00 | 0.00 | 0.00 | 82 | 1012.6 |
| 20260507015116 | 27 | 118 | 40.2 | 69.2 | 0.00 | 0.00 | 0.00 | 82 | 1012.6 |
| 20260507014613 | 27 | 123 | 33.8 | 56.3 | 0.00 | 0.00 | 0.00 | 82 | 1012.4 |
| 20260507014108 | 27 | 96 | 37.0 | 72.4 | 0.00 | 0.00 | 0.00 | 82 | 1012.2 |
| 20260507013605 | 27 | 113 | 37.0 | 61.2 | 0.00 | 0.00 | 0.00 | 82 | 1012.0 |
| 20260507013102 | 27 | 129 | 45.1 | 64.4 | 0.00 | 0.00 | 0.00 | 82 | 1012.2 |
| 20260507012600 | 27 | 110 | 35.4 | 69.2 | 0.00 | 0.00 | 0.00 | 82 | 1012.1 |
| 20260507012055 | 27 | 117 | 43.5 | 69.2 | 0.00 | 0.00 | 0.00 | 82 | 1012.0 |
| 20260507011553 | 27 | 114 | 48.3 | 64.4 | 0.00 | 0.00 | 0.00 | 82 | 1012.1 |
| 20260507011049 | 27 | 173 | 43.5 | 69.2 | 0.00 | 0.00 | 0.00 | 82 | 1011.9 |
| 20260507010544 | 27 | 112 | 33.8 | 69.2 | 0.00 | 0.00 | 0.00 | 82 | 1012.0 |
| 20260507010040 | 27 | 110 | 53.1 | 69.2 | 0.00 | 0.00 | 0.00 | 82 | 1011.9 |
| 20260507005538 | 27 | 87 | 37.0 | 53.1 | 0.00 | 0.00 | 0.00 | 82 | 1011.8 |
| 20260507005034 | 27 | 120 | 40.2 | 53.1 | 0.00 | 0.00 | 0.00 | 82 | 1011.4 |
| 20260507004531 | 27 | 117 | 38.6 | 61.2 | 0.00 | 0.00 | 0.00 | 82 | 1011.7 |
| 20260507004029 | 27 | 124 | 41.8 | 61.2 | 0.00 | 0.00 | 0.00 | 82 | 1011.6 |
| 20260507003524 | 27 | 133 | 40.2 | 56.3 | 0.00 | 0.00 | 0.00 | 82 | 1011.5 |
| 20260507003019 | 27 | 129 | 41.8 | 53.1 | 0.00 | 0.00 | 0.00 | 82 | 1011.5 |
| 20260507002516 | 27 | 122 | 22.5 | 37.0 | 0.00 | 0.00 | 0.00 | 81 | 1011.6 |
| 20260507002013 | 27 | 104 | 41.8 | 61.2 | 0.00 | 0.00 | 0.00 | 81 | 1011.6 |
| 20260507001509 | 27 | 135 | 33.8 | 45.1 | 0.00 | 0.00 | 0.00 | 81 | 1011.4 |
| 20260507001007 | 27 | 110 | 43.5 | 53.1 | 0.00 | 0.00 | 0.00 | 81 | 1011.5 |
| 20260507000502 | 27 | 102 | 35.4 | 48.3 | 0.00 | 0.00 | 0.00 | 81 | 1011.5 |
| 20260506235957 | 27 | 99 | 30.6 | 45.1 | 0.00 | 0.00 | 0.00 | 81 | 1011.5 |
| 20260506235455 | 27 | 73 | 25.7 | 45.1 | 0.00 | 0.00 | 0.00 | 81 | 1011.6 |
| 20260506234951 | 27 | 89 | 30.6 | 56.3 | 0.00 | 0.00 | 0.00 | 81 | 1011.5 |
| 20260506234449 | 27 | 103 | 33.8 | 56.3 | 0.00 | 0.00 | 0.00 | 81 | 1011.3 |
| 20260506233946 | 27 | 112 | 29.0 | 45.1 | 0.00 | 0.00 | 0.00 | 81 | 1011.2 |
| 20260506233443 | 27 | 100 | 24.1 | 48.3 | 0.00 | 0.00 | 0.00 | 81 | 1011.1 |
| 20260506232939 | 27 | 122 | 22.5 | 61.2 | 0.00 | 0.00 | 0.00 | 81 | 1011.2 |
| 20260506232435 | 27 | 122 | 46.7 | 53.1 | 0.00 | 0.00 | 0.00 | 81 | 1011.0 |
| 20260506231931 | 27 | 99 | 37.0 | 56.3 | 0.00 | 0.00 | 0.00 | 81 | 1011.2 |
| 20260506231429 | 27 | 112 | 32.2 | 69.2 | 0.00 | 0.00 | 0.00 | 80 | 1011.1 |
| 20260506230926 | 27 | 117 | 25.7 | 45.1 | 0.00 | 0.00 | 0.00 | 80 | 1011.1 |
| 20260506230422 | 27 | 115 | 32.2 | 40.2 | 0.00 | 0.00 | 0.00 | 80 | 1011.0 |
| 20260506225919 | 27 | 116 | 37.0 | 56.3 | 0.00 | 0.00 | 0.00 | 80 | 1010.8 |
| 20260506225416 | 27 | 105 | 32.2 | 56.3 | 0.00 | 0.00 | 0.00 | 80 | 1010.6 |
| 20260506224913 | 28 | 129 | 38.6 | 53.1 | 0.00 | 0.00 | 0.00 | 80 | 1010.9 |
| 20260506224411 | 28 | 102 | 32.2 | 72.4 | 0.00 | 0.00 | 0.00 | 80 | 1010.8 |
| 20260506223906 | 28 | 95 | 27.4 | 56.3 | 0.00 | 0.00 | 0.00 | 79 | 1010.7 |
| 20260506223402 | 28 | 128 | 40.2 | 61.2 | 0.00 | 0.00 | 0.00 | 79 | 1010.7 |
| 20260506222859 | 28 | 84 | 30.6 | 77.2 | 0.00 | 0.00 | 0.00 | 78 | 1010.6 |
| 20260506222355 | 28 | 103 | 38.6 | 48.3 | 0.00 | 0.00 | 0.00 | 78 | 1010.6 |
| 20260506221853 | 28 | 118 | 45.1 | 64.4 | 0.00 | 0.00 | 0.00 | 78 | 1010.4 |
| 20260506221350 | 28 | 74 | 40.2 | 64.4 | 0.00 | 0.00 | 0.00 | 77 | 1010.5 |
| 20260506220848 | 28 | 110 | 40.2 | 53.1 | 0.00 | 0.00 | 0.00 | 77 | 1010.5 |
| 20260506220343 | 28 | 88 | 30.6 | 53.1 | 0.00 | 0.00 | 0.00 | 77 | 1010.5 |
| 20260506215840 | 28 | 97 | 30.6 | 69.2 | 0.00 | 0.00 | 0.00 | 77 | 1010.6 |
| 20260506215336 | 28 | 138 | 43.5 | 64.4 | 0.00 | 0.00 | 0.00 | 76 | 1010.5 |
| 20260506214832 | 29 | 109 | 35.4 | 64.4 | 0.00 | 0.00 | 0.00 | 76 | 1010.4 |
| 20260506214329 | 29 | 69 | 20.9 | 48.3 | 0.00 | 0.00 | 0.00 | 76 | 1010.5 |
| 20260506213827 | 29 | 105 | 20.9 | 61.2 | 0.00 | 0.00 | 0.00 | 76 | 1010.5 |
| 20260506213324 | 29 | 132 | 40.2 | 61.2 | 0.00 | 0.00 | 0.00 | 75 | 1010.5 |
| 20260506212821 | 29 | 77 | 27.4 | 45.1 | 0.00 | 0.00 | 0.00 | 75 | 1010.4 |
| 20260506212317 | 29 | 117 | 45.1 | 64.4 | 0.00 | 0.00 | 0.00 | 75 | 1010.4 |
| 20260506211812 | 30 | 73 | 19.3 | 53.1 | 0.00 | 0.00 | 0.00 | 75 | 1010.4 |
| 20260506211308 | 30 | 119 | 37.0 | 53.1 | 0.00 | 0.00 | 0.00 | 73 | 1010.4 |
| 20260506210806 | 30 | 103 | 24.1 | 53.1 | 0.00 | 0.00 | 0.00 | 73 | 1010.4 |
| 20260506210303 | 30 | 80 | 40.2 | 48.3 | 0.00 | 0.00 | 0.00 | 73 | 1010.4 |
| 20260506205800 | 30 | 96 | 24.1 | 56.3 | 0.00 | 0.00 | 0.00 | 72 | 1010.4 |
| 20260506205255 | 30 | 132 | 24.1 | 40.2 | 0.00 | 0.00 | 0.00 | 73 | 1010.5 |
| 20260506204752 | 30 | 101 | 27.4 | 53.1 | 0.00 | 0.00 | 0.00 | 73 | 1010.5 |
| 20260506204250 | 30 | 129 | 32.2 | 40.2 | 0.00 | 0.00 | 0.00 | 73 | 1010.7 |
| 20260506203748 | 30 | 113 | 32.2 | 48.3 | 0.00 | 0.00 | 0.00 | 72 | 1010.7 |
| 20260506203245 | 30 | 93 | 37.0 | 64.4 | 0.00 | 0.00 | 0.00 | 72 | 1010.6 |
| 20260506202742 | 30 | 145 | 27.4 | 40.2 | 0.00 | 0.00 | 0.00 | 72 | 1010.7 |
| 20260506202238 | 30 | 113 | 33.8 | 53.1 | 0.00 | 0.00 | 0.00 | 73 | 1010.6 |
| 20260506201735 | 30 | 126 | 40.2 | 77.2 | 0.00 | 0.00 | 0.00 | 72 | 1010.8 |
| 20260506201232 | 31 | 118 | 37.0 | 48.3 | 0.00 | 0.00 | 0.00 | 71 | 1011.0 |
| 20260506200729 | 30 | 112 | 27.4 | 53.1 | 0.00 | 0.00 | 0.00 | 72 | 1010.7 |
| 20260506200226 | 30 | 115 | 38.6 | 53.1 | 0.00 | 0.00 | 0.00 | 73 | 1010.8 |
| 20260506195722 | 30 | 115 | 25.7 | 61.2 | 0.00 | 0.00 | 0.00 | 74 | 1011.2 |
| 20260506195218 | 30 | 132 | 38.6 | 61.2 | 0.00 | 0.00 | 0.00 | 73 | 1011.0 |
| 20260506194715 | 30 | 122 | 29.0 | 64.4 | 0.00 | 0.00 | 0.00 | 74 | 1011.2 |
| 20260506194212 | 30 | 115 | 32.2 | 72.4 | 0.00 | 0.00 | 0.00 | 74 | 1010.9 |
| 20260506193710 | 30 | 108 | 17.7 | 45.1 | 0.00 | 0.00 | 0.00 | 73 | 1011.1 |
| 20260506193207 | 30 | 103 | 40.2 | 56.3 | 0.00 | 0.00 | 0.00 | 74 | 1011.1 |
| 20260506192703 | 30 | 121 | 27.4 | 69.2 | 0.00 | 0.00 | 0.00 | 74 | 1011.1 |
| 20260506192200 | 30 | 108 | 37.0 | 80.5 | 0.00 | 0.00 | 0.00 | 74 | 1011.0 |
| 20260506191657 | 30 | 133 | 38.6 | 56.3 | 0.00 | 0.00 | 0.00 | 73 | 1011.1 |
| 20260506191153 | 30 | 103 | 49.9 | 72.4 | 0.00 | 0.00 | 0.00 | 74 | 1011.1 |
| 20260506190650 | 30 | 121 | 41.8 | 64.4 | 0.00 | 0.00 | 0.00 | 74 | 1011.0 |
| 20260506190147 | 30 | 134 | 43.5 | 72.4 | 0.00 | 0.00 | 0.00 | 74 | 1011.3 |
| 20260506185644 | 30 | 97 | 41.8 | 61.2 | 0.00 | 0.00 | 0.00 | 74 | 1011.3 |
| 20260506185140 | 30 | 111 | 38.6 | 48.3 | 0.00 | 0.00 | 0.00 | 74 | 1011.1 |
| 20260506184638 | 30 | 110 | 43.5 | 61.2 | 0.00 | 0.00 | 0.00 | 73 | 1011.4 |
| 20260506184135 | 30 | 94 | 35.4 | 64.4 | 0.00 | 0.00 | 0.00 | 74 | 1011.4 |
| 20260506183631 | 30 | 104 | 37.0 | 72.4 | 0.00 | 0.00 | 0.00 | 73 | 1011.6 |
| 20260506183127 | 30 | 139 | 51.5 | 69.2 | 0.00 | 0.00 | 0.00 | 74 | 1011.7 |
| 20260506182625 | 30 | 136 | 48.3 | 61.2 | 0.00 | 0.00 | 0.00 | 74 | 1011.6 |
| 20260506182122 | 30 | 80 | 45.1 | 77.2 | 0.00 | 0.00 | 0.00 | 74 | 1011.8 |
| 20260506181620 | 30 | 132 | 38.6 | 69.2 | 0.00 | 0.00 | 0.00 | 74 | 1011.7 |
| 20260506181117 | 30 | 118 | 49.9 | 77.2 | 0.00 | 0.00 | 0.00 | 73 | 1011.9 |
| 20260506180614 | 30 | 123 | 48.3 | 69.2 | 0.00 | 0.00 | 0.00 | 72 | 1012.0 |
| 20260506180110 | 30 | 107 | 38.6 | 77.2 | 0.00 | 0.00 | 0.00 | 73 | 1012.1 |
| 20260506175606 | 30 | 132 | 45.1 | 69.2 | 0.00 | 0.00 | 0.00 | 73 | 1012.2 |
| 20260506175102 | 30 | 123 | 45.1 | 61.2 | 0.00 | 0.00 | 0.00 | 73 | 1012.3 |
| 20260506174601 | 30 | 123 | 45.1 | 53.1 | 0.00 | 0.00 | 0.00 | 72 | 1012.3 |
| 20260506174057 | 30 | 111 | 25.7 | 48.3 | 0.00 | 0.00 | 0.00 | 73 | 1012.5 |
| 20260506173555 | 31 | 139 | 46.7 | 69.2 | 0.00 | 0.00 | 0.00 | 72 | 1012.6 |
| 20260506173052 | 31 | 133 | 27.4 | 40.2 | 0.00 | 0.00 | 0.00 | 72 | 1012.7 |
| 20260506172549 | 30 | 111 | 24.1 | 53.1 | 0.00 | 0.00 | 0.00 | 74 | 1012.7 |
| 20260506172045 | 31 | 123 | 33.8 | 40.2 | 0.00 | 0.00 | 0.00 | 72 | 1012.9 |
| 20260506171543 | 31 | 142 | 38.6 | 56.3 | 0.00 | 0.00 | 0.00 | 72 | 1013.0 |
| 20260506171041 | 31 | 102 | 35.4 | 48.3 | 0.00 | 0.00 | 0.00 | 72 | 1013.2 |
| 20260506170538 | 30 | 125 | 38.6 | 72.4 | 0.00 | 0.00 | 0.00 | 73 | 1013.2 |
| 20260506170035 | 31 | 124 | 32.2 | 53.1 | 0.00 | 0.00 | 0.00 | 72 | 1013.3 |
| 20260506165533 | 30 | 157 | 40.2 | 69.2 | 0.00 | 0.00 | 0.00 | 73 | 1013.5 |
| 20260506165029 | 30 | 96 | 37.0 | 45.1 | 0.00 | 0.00 | 0.00 | 73 | 1013.3 |
| 20260506164526 | 30 | 104 | 40.2 | 56.3 | 0.00 | 0.00 | 0.00 | 72 | 1013.5 |